THY738 LGAV-LTFM

Flight info

Callsign THY738
Flight time N/A
Altitude 37000
Route KRO2E KRO UN604 INBET INBET2A
Aircraft B38M/M-SDE1FGHILORVWXY/HB1

Departure

Time 2026-05-05 17:48
Airport Athens Eleftherios Venizelos International Airport (LGAV)

Arrival

Time N/A
Airport İstanbul Airport (LTFM)
Time Latitude Longitude Altitude Speed Heading
2026-05-05 17:32 37.92844 23.94235 293 ft 0 kts 207°
2026-05-05 17:40 37.92852 23.94240 295 ft 2 kts 204°
2026-05-05 17:40 37.92866 23.94249 294 ft 2 kts 205°
2026-05-05 17:41 37.92881 23.94257 295 ft 2 kts 202°
2026-05-05 17:41 37.92897 23.94265 290 ft 2 kts 198°
2026-05-05 17:41 37.92913 23.94270 294 ft 2 kts 187°
2026-05-05 17:41 37.92929 23.94270 292 ft 2 kts 154°
2026-05-05 17:42 37.92940 23.94260 294 ft 1 kts 129°
2026-05-05 17:42 37.92941 23.94257 294 ft 0 kts 128°
2026-05-05 17:44 37.92941 23.94258 294 ft 0 kts 128°
2026-05-05 17:44 37.92939 23.94260 294 ft 1 kts 128°
2026-05-05 17:44 37.92936 23.94266 293 ft 1 kts 128°
2026-05-05 17:44 37.92927 23.94280 292 ft 4 kts 128°
2026-05-05 17:45 37.92893 23.94336 294 ft 11 kts 127°
2026-05-05 17:45 37.92844 23.94420 293 ft 12 kts 127°
2026-05-05 17:45 37.92786 23.94451 292 ft 8 kts 193°
2026-05-05 17:45 37.92739 23.94413 292 ft 8 kts 216°
2026-05-05 17:46 37.92685 23.94361 293 ft 11 kts 217°
2026-05-05 17:46 37.92618 23.94299 297 ft 12 kts 216°
2026-05-05 17:46 37.92546 23.94312 297 ft 12 kts 131°
2026-05-05 17:46 37.92495 23.94402 296 ft 14 kts 116°
2026-05-05 17:47 37.92545 23.94513 292 ft 27 kts 36°
2026-05-05 17:47 37.92891 23.94839 287 ft 98 kts 37°
2026-05-05 17:47 37.93601 23.95509 286 ft 154 kts 36°
2026-05-05 17:47 37.94545 23.96387 527 ft 179 kts 36°
2026-05-05 17:48 37.95620 23.97384 914 ft 200 kts 36°
2026-05-05 17:48 37.96742 23.98416 1447 ft 195 kts 36°
2026-05-05 17:48 37.97834 23.99404 1922 ft 194 kts 36°
2026-05-05 17:48 37.98896 24.00417 2394 ft 186 kts 37°
2026-05-05 17:49 37.99920 24.01432 2722 ft 189 kts 37°
2026-05-05 17:49 38.00959 24.02481 3023 ft 191 kts 38°
2026-05-05 17:49 38.01631 24.03193 3299 ft 188 kts 39°
2026-05-05 17:49 38.02699 24.04282 3314 ft 207 kts 35°
2026-05-05 17:50 38.03919 24.05427 3295 ft 233 kts 35°
2026-05-05 17:50 38.05266 24.06710 3737 ft 248 kts 36°
2026-05-05 17:50 38.06648 24.08046 4422 ft 251 kts 34°
2026-05-05 17:50 38.08018 24.09431 5172 ft 254 kts 43°
2026-05-05 17:51 38.08834 24.11426 5916 ft 263 kts 76°
2026-05-05 17:51 38.08986 24.13757 6635 ft 267 kts 84°
2026-05-05 17:51 38.09099 24.16107 7307 ft 267 kts 80°
2026-05-05 17:51 38.09363 24.18441 7981 ft 267 kts 76°
2026-05-05 17:52 38.09694 24.20764 8655 ft 268 kts 76°
2026-05-05 17:52 38.09999 24.23111 9304 ft 271 kts 77°
2026-05-05 17:52 38.10283 24.25492 9861 ft 277 kts 77°
2026-05-05 17:52 38.10580 24.27954 10251 ft 289 kts 77°
2026-05-05 17:53 38.10901 24.30537 10539 ft 304 kts 77°
2026-05-05 17:53 38.11237 24.33259 10790 ft 320 kts 77°
2026-05-05 17:53 38.11789 24.36008 11194 ft 323 kts 58°
2026-05-05 17:53 38.13120 24.38243 11688 ft 324 kts 44°
2026-05-05 17:54 38.14746 24.40297 12271 ft 328 kts 41°
2026-05-05 17:54 38.16323 24.42424 12833 ft 334 kts 47°
2026-05-05 17:54 38.17726 24.44810 13397 ft 340 kts 52°
2026-05-05 17:54 38.19050 24.47314 13955 ft 343 kts 52°
2026-05-05 17:55 38.20454 24.49783 14456 ft 346 kts 49°
2026-05-05 17:55 38.21926 24.52190 14812 ft 354 kts 49°
2026-05-05 17:55 38.23431 24.54735 15026 ft 367 kts 51°
2026-05-05 17:55 38.24924 24.57405 15484 ft 372 kts 51°
2026-05-05 17:56 38.26436 24.60057 16141 ft 369 kts 50°
2026-05-05 17:56 38.27971 24.62676 16782 ft 368 kts 49°
2026-05-05 17:56 38.29500 24.65295 17370 ft 369 kts 49°
2026-05-05 17:56 38.31018 24.67933 17929 ft 370 kts 50°
2026-05-05 17:57 38.32543 24.70587 18450 ft 372 kts 49°
2026-05-05 17:57 38.34078 24.73247 18895 ft 374 kts 49°
2026-05-05 17:57 38.35625 24.75923 19327 ft 376 kts 49°
2026-05-05 17:57 38.37178 24.78621 19750 ft 379 kts 49°
2026-05-05 17:58 38.38738 24.81336 20177 ft 381 kts 49°
2026-05-05 17:58 38.40308 24.84066 20599 ft 383 kts 48°
2026-05-05 17:58 38.41890 24.86820 21018 ft 386 kts 48°
2026-05-05 17:58 38.43480 24.89589 21427 ft 388 kts 48°
2026-05-05 17:59 38.45076 24.92374 21841 ft 390 kts 48°
2026-05-05 17:59 38.46685 24.95181 22228 ft 393 kts 48°
2026-05-05 17:59 38.48300 24.98003 22651 ft 395 kts 47°
2026-05-05 17:59 38.49927 25.00848 23061 ft 398 kts 47°
2026-05-05 18:00 38.51562 25.03709 23471 ft 400 kts 47°
2026-05-05 18:00 38.53208 25.06593 23821 ft 403 kts 47°
2026-05-05 18:00 38.54862 25.09491 24144 ft 405 kts 47°
2026-05-05 18:00 38.56525 25.12410 24480 ft 407 kts 47°
2026-05-05 18:01 38.58196 25.15345 24807 ft 409 kts 47°
2026-05-05 18:01 38.59882 25.18307 25132 ft 411 kts 47°
2026-05-05 18:01 38.61572 25.21249 25429 ft 414 kts 46°
2026-05-05 18:01 38.63263 25.24238 25747 ft 416 kts 47°
2026-05-05 18:02 38.64953 25.27253 26054 ft 418 kts 47°
2026-05-05 18:02 38.66660 25.30266 26372 ft 419 kts 46°
2026-05-05 18:02 38.68384 25.33292 26699 ft 421 kts 46°
2026-05-05 18:02 38.70107 25.36333 27003 ft 423 kts 46°
2026-05-05 18:03 38.71831 25.39393 27302 ft 425 kts 47°
2026-05-05 18:03 38.73569 25.42475 27594 ft 427 kts 47°
2026-05-05 18:03 38.75315 25.45567 27882 ft 429 kts 47°
2026-05-05 18:03 38.77067 25.48671 28164 ft 431 kts 47°
2026-05-05 18:04 38.78825 25.51795 28449 ft 433 kts 47°
2026-05-05 18:04 38.80592 25.54938 28724 ft 435 kts 47°
2026-05-05 18:04 38.82364 25.58091 28990 ft 437 kts 46°
2026-05-05 18:04 38.84146 25.61265 29265 ft 439 kts 46°
2026-05-05 18:05 38.85940 25.64463 29570 ft 441 kts 47°
2026-05-05 18:05 38.87728 25.67655 29816 ft 443 kts 47°
2026-05-05 18:05 38.89529 25.70875 30161 ft 443 kts 47°
2026-05-05 18:05 38.91326 25.74091 30478 ft 443 kts 47°
2026-05-05 18:06 38.93120 25.77302 30781 ft 442 kts 47°
2026-05-05 18:06 38.94305 25.79424 30982 ft 442 kts 47°
2026-05-05 18:06 38.96723 25.83754 31053 ft 450 kts 47°
2026-05-05 18:07 39.00425 25.90403 31064 ft 465 kts 47°
2026-05-05 18:07 39.04237 25.97268 31070 ft 479 kts 48°
2026-05-05 18:08 39.08157 26.04341 31063 ft 487 kts 48°
2026-05-05 18:08 39.10078 26.07834 31053 ft 469 kts 48°
2026-05-05 18:08 39.11930 26.11196 31056 ft 452 kts 47°
2026-05-05 18:09 39.15580 26.17761 31061 ft 456 kts 47°
2026-05-05 18:09 39.19220 26.24400 31051 ft 457 kts 48°
2026-05-05 18:10 39.22896 26.31075 31062 ft 457 kts 48°
2026-05-05 18:10 39.26611 26.37703 31068 ft 450 kts 40°
2026-05-05 18:11 39.31487 26.42461 31064 ft 436 kts 25°
2026-05-05 18:11 39.36685 26.46514 31069 ft 439 kts 29°
2026-05-05 18:12 39.41521 26.51427 31065 ft 443 kts 33°
2026-05-05 18:12 39.46422 26.56187 31066 ft 440 kts 30°
2026-05-05 18:13 39.51345 26.60970 31066 ft 443 kts 32°
2026-05-05 18:13 39.56252 26.65792 31069 ft 442 kts 31°
2026-05-05 18:14 39.61182 26.70591 30982 ft 444 kts 32°
2026-05-05 18:14 39.66053 26.75495 30982 ft 446 kts 36°
2026-05-05 18:15 39.70502 26.81175 30776 ft 449 kts 39°
2026-05-05 18:15 39.72745 26.83971 30426 ft 445 kts 37°
2026-05-05 18:15 39.75057 26.86634 30069 ft 443 kts 36°
2026-05-05 18:15 39.77340 26.89321 29690 ft 443 kts 38°
2026-05-05 18:16 39.79570 26.92079 29287 ft 442 kts 39°
2026-05-05 18:16 39.81791 26.94824 28903 ft 439 kts 38°
2026-05-05 18:16 39.84028 26.97515 28531 ft 437 kts 38°
2026-05-05 18:16 39.86260 27.00191 28155 ft 435 kts 38°
2026-05-05 18:17 39.88457 27.02869 28003 ft 430 kts 38°
2026-05-05 18:17 39.92806 27.08177 28019 ft 428 kts 38°
2026-05-05 18:18 39.97149 27.13460 28007 ft 426 kts 38°
2026-05-05 18:18 40.01476 27.18750 27972 ft 426 kts 39°
2026-05-05 18:18 40.03610 27.21358 27582 ft 425 kts 39°
2026-05-05 18:19 40.05762 27.23993 27029 ft 423 kts 39°
2026-05-05 18:19 40.07901 27.26615 26440 ft 420 kts 39°
2026-05-05 18:19 40.10022 27.29217 25875 ft 417 kts 39°
2026-05-05 18:19 40.12127 27.31799 25330 ft 413 kts 39°
2026-05-05 18:20 40.14210 27.34357 24791 ft 410 kts 39°
2026-05-05 18:20 40.16279 27.36902 24283 ft 407 kts 39°
2026-05-05 18:20 40.18331 27.39427 23792 ft 403 kts 40°
2026-05-05 18:20 40.20196 27.42168 23231 ft 405 kts 50°
2026-05-05 18:21 40.21642 27.45344 22675 ft 408 kts 60°
2026-05-05 18:21 40.22680 27.48805 22142 ft 409 kts 67°
2026-05-05 18:21 40.23651 27.52263 21595 ft 400 kts 56°
2026-05-05 18:21 40.25391 27.54975 21076 ft 384 kts 32°
2026-05-05 18:22 40.27586 27.56904 20555 ft 380 kts 34°
2026-05-05 18:22 40.29547 27.59228 20033 ft 381 kts 41°
2026-05-05 18:22 40.31387 27.61709 19510 ft 379 kts 41°
2026-05-05 18:22 40.33267 27.64103 19008 ft 374 kts 38°
2026-05-05 18:23 40.35252 27.66294 18417 ft 373 kts 35°
2026-05-05 18:23 40.37245 27.68454 17956 ft 369 kts 37°
2026-05-05 18:23 40.39145 27.70656 17694 ft 360 kts 38°
2026-05-05 18:23 40.40972 27.72818 17560 ft 347 kts 38°
2026-05-05 18:24 40.42756 27.74874 17406 ft 336 kts 37°
2026-05-05 18:24 40.44498 27.76854 17237 ft 327 kts 37°
2026-05-05 18:24 40.46192 27.78799 17069 ft 320 kts 37°
2026-05-05 18:24 40.47847 27.80716 16837 ft 314 kts 37°
2026-05-05 18:25 40.49477 27.82600 16573 ft 310 kts 37°
2026-05-05 18:25 40.50546 27.83832 16396 ft 308 kts 37°
2026-05-05 18:25 40.52682 27.86297 16058 ft 303 kts 38°
2026-05-05 18:25 40.54254 27.88115 15797 ft 299 kts 38°
2026-05-05 18:26 40.55808 27.89913 15542 ft 296 kts 38°
2026-05-05 18:26 40.57345 27.91693 15283 ft 293 kts 38°
2026-05-05 18:26 40.58866 27.93454 15045 ft 290 kts 38°
2026-05-05 18:26 40.60369 27.95197 14809 ft 287 kts 38°
2026-05-05 18:27 40.61857 27.96923 14564 ft 284 kts 38°
2026-05-05 18:27 40.63330 27.98632 14333 ft 281 kts 38°
2026-05-05 18:27 40.64789 28.00326 14105 ft 278 kts 38°
2026-05-05 18:27 40.66232 28.02003 13881 ft 276 kts 38°
2026-05-05 18:28 40.69059 28.05291 13407 ft 269 kts 38°
2026-05-05 18:28 40.70403 28.06861 13186 ft 247 kts 38°
2026-05-05 18:28 40.71644 28.08309 12885 ft 232 kts 37°
2026-05-05 18:29 40.72837 28.09695 12448 ft 225 kts 37°
2026-05-05 18:29 40.74003 28.11049 11979 ft 222 kts 37°
2026-05-05 18:29 40.75150 28.12387 11507 ft 219 kts 37°
2026-05-05 18:29 40.76282 28.13709 11042 ft 216 kts 37°
2026-05-05 18:30 40.77399 28.15013 10590 ft 213 kts 37°
2026-05-05 18:30 40.78507 28.16307 10133 ft 211 kts 37°
2026-05-05 18:30 40.79599 28.17583 9662 ft 209 kts 37°
2026-05-05 18:30 40.80557 28.19017 9145 ft 217 kts 62°
2026-05-05 18:31 40.80664 28.21078 8419 ft 243 kts 100°
2026-05-05 18:31 40.79701 28.23002 7642 ft 266 kts 139°
2026-05-05 18:31 40.77972 28.23891 6999 ft 273 kts 177°
2026-05-05 18:31 40.76187 28.23306 6606 ft 263 kts 218°
2026-05-05 18:32 40.75052 28.21532 6271 ft 250 kts 255°
2026-05-05 18:32 40.74944 28.19367 5740 ft 232 kts 293°
2026-05-05 18:32 40.75841 28.17748 5223 ft 217 kts 332°
2026-05-05 18:32 40.77270 28.17381 4694 ft 213 kts 10°
2026-05-05 18:33 40.78663 28.18055 4183 ft 214 kts 22°
2026-05-05 18:33 40.80033 28.18802 4009 ft 213 kts 21°
2026-05-05 18:33 40.81366 28.19708 4010 ft 217 kts 31°
2026-05-05 18:33 40.82560 28.20946 4011 ft 220 kts 39°
2026-05-05 18:34 40.83680 28.22326 4010 ft 220 kts 40°
2026-05-05 18:34 40.84807 28.23688 4008 ft 219 kts 39°
2026-05-05 18:34 40.85952 28.25025 4008 ft 220 kts 38°
2026-05-05 18:34 40.87098 28.26359 4006 ft 220 kts 39°
2026-05-05 18:35 40.88223 28.27722 4003 ft 221 kts 47°
2026-05-05 18:35 40.88865 28.29557 3913 ft 221 kts 71°
2026-05-05 18:35 40.89245 28.31507 3702 ft 217 kts 71°
2026-05-05 18:35 40.89690 28.33400 3473 ft 214 kts 67°
2026-05-05 18:36 40.90207 28.35239 3232 ft 213 kts 66°
2026-05-05 18:36 40.90730 28.37065 2987 ft 212 kts 66°
2026-05-05 18:36 40.90904 28.37683 2921 ft 211 kts 67°
2026-05-05 18:37 40.92213 28.42406 2905 ft 210 kts 67°
2026-05-05 18:37 40.92716 28.44222 2906 ft 210 kts 67°
2026-05-05 18:37 40.93219 28.46035 2905 ft 210 kts 67°
2026-05-05 18:37 40.93722 28.47852 2992 ft 210 kts 67°
2026-05-05 18:38 40.94220 28.49657 2992 ft 205 kts 66°
2026-05-05 18:38 40.94709 28.51422 2989 ft 205 kts 66°
2026-05-05 18:38 40.95197 28.53188 2995 ft 204 kts 66°
2026-05-05 18:38 40.95684 28.54952 2996 ft 204 kts 66°
2026-05-05 18:39 40.96172 28.56718 2996 ft 205 kts 66°
2026-05-05 18:39 40.96659 28.58485 2996 ft 204 kts 66°
2026-05-05 18:39 40.97146 28.60251 2989 ft 204 kts 66°
2026-05-05 18:39 40.97633 28.62020 2991 ft 204 kts 66°
2026-05-05 18:40 40.98118 28.63785 2993 ft 204 kts 66°
2026-05-05 18:40 40.98604 28.65550 2994 ft 204 kts 66°
2026-05-05 18:40 40.99090 28.67318 2996 ft 205 kts 67°
2026-05-05 18:40 40.99582 28.69103 2996 ft 206 kts 65°
2026-05-05 18:41 41.00411 28.70580 2993 ft 200 kts 33°
2026-05-05 18:41 41.01688 28.71232 3009 ft 199 kts
2026-05-05 18:41 41.03070 28.71263 3010 ft 198 kts 359°
2026-05-05 18:41 41.04398 28.71214 2990 ft 183 kts 358°
2026-05-05 18:42 41.05646 28.71183 2996 ft 180 kts 359°
2026-05-05 18:42 41.06890 28.71157 2992 ft 177 kts 359°
2026-05-05 18:42 41.08113 28.71132 2997 ft 172 kts 359°
2026-05-05 18:42 41.09315 28.71107 3003 ft 174 kts 359°
2026-05-05 18:43 41.10112 28.71090 3002 ft 172 kts 359°
2026-05-05 18:43 41.11308 28.71065 2998 ft 169 kts 359°
2026-05-05 18:43 41.12469 28.71041 2994 ft 166 kts 359°
2026-05-05 18:43 41.13588 28.71018 2893 ft 158 kts 359°
2026-05-05 18:44 41.14687 28.70995 2688 ft 158 kts 359°
2026-05-05 18:44 41.15785 28.70972 2470 ft 158 kts 359°
2026-05-05 18:44 41.16883 28.70950 2256 ft 158 kts 359°
2026-05-05 18:44 41.17981 28.70927 2044 ft 159 kts 359°
2026-05-05 18:45 41.19080 28.70904 1833 ft 157 kts 359°
2026-05-05 18:45 41.20160 28.70881 1615 ft 150 kts 359°
2026-05-05 18:45 41.21172 28.70860 1405 ft 145 kts 359°
2026-05-05 18:45 41.22179 28.70839 1206 ft 144 kts 359°
2026-05-05 18:46 41.23179 28.70818 1007 ft 144 kts 359°
2026-05-05 18:46 41.24183 28.70797 809 ft 144 kts 359°
2026-05-05 18:46 41.25185 28.70783 568 ft 142 kts 360°
2026-05-05 18:46 41.26179 28.70758 376 ft 143 kts 359°
2026-05-05 18:47 41.27175 28.70723 272 ft 143 kts 358°
2026-05-05 18:47 41.28189 28.70675 466 ft 147 kts 359°
2026-05-05 18:47 41.29223 28.70660 627 ft 155 kts
2026-05-05 18:47 41.30223 28.69973 716 ft 185 kts 302°
2026-05-05 18:48 41.30636 28.68208 739 ft 222 kts 278°
2026-05-05 18:48 41.30734 28.66077 1623 ft 244 kts 271°
2026-05-05 18:48 41.30745 28.63613 2081 ft 287 kts 271°